Vorticity
4 13 -1 4 -4 -4 -2 2 6 0 6 4 2 1 2 3 6 2 2 6 2 3 5 6 2 8 4 2 9 -2 2 -7 -1 9 7 21 22 4 -5 12 5 3 6 4
3 2 4 -4 -1 -3 7 3 -3 -4 -7 11 9 7 5 2 3 7 2 4 5 0 8 9 15 8 7 -3 -8 -1 3 5 6 8 27 -6 -14 14 12 3 3 4 4 2
-4 7 2 6 5 5 14 3 2 -1 -6 6 5 6 7 4 5 1 13 12 -6 7 6 5 8 2 1 2 7 6 6 8 5 5 2 6 13 8 2 2 5 5 3 3
6 7 10 6 4 6 11 19 -0 3 9 5 3 2 4 5 3 4 4 3 9 -2 -0 13 3 -2 4 9 10 8 5 6 7 10 13 13 6 5 7 8 4 3 2 0
10 6 3 4 5 5 8 7 8 5 5 6 5 4 3 3 5 12 5 7 7 -2 22 -7 -23 11 4 4 3 12 15 10 12 13 7 6 7 10 7 3 2 -0 2 2
5 6 5 4 4 4 4 4 4 4 4 4 6 7 2 5 12 10 15 -3 -0 7 10 4 -11 3 6 6 1 10 13 16 10 8 9 12 6 2 0 -0 2 2 3 4
4 4 6 8 10 13 18 19 18 18 23 20 11 11 1 8 -0 -7 -9 -1 5 8 4 7 1 16 -6 30 26 16 11 9 12 14 2 3 2 1 2 2 4 5 5 4
7 8 11 13 12 10 9 8 10 10 12 7 9 10 1 -3 13 14 2 12 12 -6 20 -6 13 4 21 19 15 16 14 6 1 0 1 1 0 2 2 4 2 3 6 9
17 13 11 9 9 11 11 11 14 14 13 9 9 7 8 10 10 7 6 30 1 -9 -6 17 31 14 12 11 7 6 2 2 1 1 2 2 2 3 4 3 4 6 9 13
8 8 10 10 9 8 12 10 8 11 16 12 14 13 10 13 8 8 9 18 10 14 23 17 12 6 7 2 2 1 2 2 2 2 3 2 4 4 4 5 7 10 16 11
8 9 9 4 2 4 2 1 4 4 12 20 17 15 13 12 17 17 12 19 17 23 6 3 8 7 4 3 2 1 1 -0 2 4 2 3 5 5 5 9 9 9 8 9
10 8 4 4 -1 3 1 5 -1 -1 -2 2 7 8 15 15 15 18 15 17 14 7 1 5 5 2 4 4 3 2 3 4 4 1 2 5 4 5 6 8 10 10 11 14
4 -1 5 5 5 3 1 -3 4 -1 1 1 2 4 9 13 11 14 14 11 11 8 7 1 7 6 1 4 2 5 3 4 2 2 5 4 5 4 10 11 10 10 13 32
5 3 4 5 5 0 1 4 5 3 5 8 2 5 5 7 8 9 9 8 6 3 0 9 7 5 3 3 4 4 5 3 4 4 6 6 5 9 9 11 10 18 27 18
1 2 3 2 4 3 3 3 3 4 3 6 5 8 8 9 9 8 10 11 12 10 9 7 3 4 4 5 3 4 3 5 6 6 5 5 8 11 10 10 20 24 26 23
1 1 2 3 2 1 4 5 1 2 4 4 5 6 6 5 7 11 12 10 8 6 4 4 3 6 6 3 2 4 5 5 5 6 5 8 12 10 11 16 24 37 29 32
2 0 2 2 3 3 3 2 5 1 7 2 6 7 2 8 8 9 10 8 6 4 3 4 5 7 4 2 5 5 4 4 6 6 8 12 9 10 14 25 38 32 32 39
2 2 2 3 4 3 3 3 3 3 3 5 6 5 5 7 7 7 9 9 7 5 5 6 8 5 4 6 5 5 4 6 7 9 10 11 7 11 25 41 37 31 25 14
2 1 3 4 3 3 2 5 1 5 8 6 6 7 7 9 8 6 8 10 11 8 8 6 3 4 5 6 5 5 6 6 9 9 9 8 10 23 38 38 31 1 14 11
5 4 3 3 3 3 0 2 2 1 5 5 4 6 9 8 8 6 5 9 11 9 4 3 3 5 6 6 7 6 7 9 7 8 12 7 22 38 35 31 17 5 7 9
6 4 3 3 4 3 6 1 2 4 6 3 4 8 7 10 5 5 8 13 9 7 5 5 5 5 2 4 7 8 9 6 10 12 7 20 34 33 31 20 9 9 13 8
7 6 6 6 8 7 3 4 3 6 3 6 8 9 10 6 5 5 10 11 6 6 5 4 4 4 4 9 10 10 6 12 12 6 17 31 30 27 25 15 6 8 13 8
9 6 6 5 6 10 5 4 6 10 -7 8 12 7 5 9 2 6 11 6 6 4 2 2 4 6 8 11 11 6 8 13 7 11 26 30 27 23 19 10 7 12 11 8
9 8 5 7 3 3 6 6 8 -2 9 10 8 9 11 4 4 11 9 7 3 4 3 4 6 10 14 11 6 9 13 9 12 22 29 29 29 19 14 9 7 8 9 8
9 9 9 8 9 4 8 5 -0 6 13 12 10 8 5 3 8 10 7 4 4 1 3 7 14 14 9 5 10 13 7 13 23 23 27 30 27 15 12 9 7 6 10 10
12 13 10 10 10 10 6 5 10 12 10 9 8 8 5 6 9 6 2 2 1 6 9 14 13 9 5 12 11 7 14 19 21 24 24 30 18 15 11 14 9 6 10 10
Height
5800 5803 5806 5810 5813 5813 5813 5815 5816 5817 5820 5822 5820 5818 5819 5821 5822 5821 5821 5820 5817 5818 5816 5814 5811 5809 5809 5808 5806 5803 5800 5796 5791 5786 5783 5780 5775 5769 5764 5759 5754 5749 5744 5739
5800 5802 5806 5807 5810 5812 5812 5814 5816 5817 5820 5820 5818 5817 5817 5817 5818 5819 5819 5819 5817 5816 5814 5812 5810 5808 5805 5803 5802 5799 5793 5788 5784 5781 5776 5771 5766 5761 5756 5750 5744 5738 5733 5727
5802 5804 5804 5807 5808 5811 5812 5813 5815 5817 5819 5817 5814 5815 5816 5815 5813 5815 5817 5817 5816 5813 5811 5808 5807 5806 5805 5802 5798 5794 5790 5785 5778 5771 5766 5762 5758 5752 5746 5739 5734 5728 5722 5715
5802 5802 5805 5806 5808 5810 5812 5812 5813 5814 5816 5815 5813 5811 5809 5810 5811 5812 5814 5814 5813 5810 5806 5805 5805 5803 5800 5796 5791 5787 5781 5774 5770 5767 5762 5757 5752 5746 5740 5734 5726 5718 5711 5705
5802 5802 5803 5804 5806 5808 5809 5810 5811 5811 5812 5813 5810 5807 5803 5805 5807 5808 5808 5808 5807 5806 5803 5801 5798 5794 5791 5787 5785 5781 5775 5768 5764 5759 5754 5749 5744 5739 5732 5725 5717 5709 5700 5692
5799 5800 5802 5803 5804 5806 5807 5808 5807 5807 5808 5808 5805 5803 5799 5800 5802 5800 5801 5801 5801 5798 5798 5798 5795 5791 5786 5780 5774 5768 5762 5759 5754 5750 5747 5742 5736 5729 5721 5713 5704 5694 5684 5674
5797 5799 5800 5801 5802 5802 5803 5803 5803 5803 5802 5801 5801 5799 5795 5795 5794 5795 5795 5795 5792 5790 5789 5789 5788 5782 5778 5772 5765 5759 5754 5750 5746 5742 5736 5730 5722 5714 5704 5694 5685 5673 5661 5650
5796 5798 5798 5799 5800 5800 5800 5801 5801 5800 5799 5799 5798 5796 5795 5791 5789 5787 5786 5786 5784 5783 5781 5778 5773 5766 5762 5760 5756 5751 5747 5743 5738 5731 5724 5716 5707 5698 5689 5679 5667 5655 5643 5629
5794 5795 5796 5798 5798 5799 5799 5799 5799 5798 5796 5794 5793 5791 5789 5787 5784 5779 5777 5776 5776 5774 5771 5768 5761 5754 5749 5746 5742 5738 5733 5729 5724 5717 5708 5699 5690 5681 5671 5660 5649 5637 5623 5608
5793 5794 5796 5796 5797 5798 5798 5798 5797 5795 5794 5790 5788 5786 5784 5782 5778 5776 5775 5774 5772 5766 5761 5757 5753 5747 5743 5739 5734 5728 5722 5716 5709 5702 5694 5686 5677 5667 5655 5641 5629 5617 5604 5589
5792 5793 5796 5796 5796 5796 5796 5796 5794 5793 5792 5789 5783 5783 5779 5776 5774 5771 5768 5764 5761 5758 5753 5748 5743 5738 5734 5729 5724 5719 5712 5705 5697 5689 5680 5671 5661 5649 5637 5624 5609 5595 5581 5564
5791 5792 5793 5795 5794 5794 5794 5793 5792 5790 5788 5786 5784 5780 5774 5771 5767 5764 5761 5759 5755 5752 5749 5744 5739 5735 5729 5724 5718 5711 5704 5696 5687 5678 5667 5656 5643 5630 5616 5600 5585 5568 5555 5541
5789 5791 5792 5792 5793 5792 5791 5790 5789 5786 5783 5780 5778 5776 5771 5767 5763 5759 5754 5751 5749 5745 5741 5737 5733 5728 5722 5717 5711 5703 5693 5684 5674 5663 5651 5638 5624 5608 5594 5579 5563 5546 5530 5516
5787 5789 5790 5790 5790 5789 5787 5784 5784 5782 5780 5778 5774 5773 5767 5761 5758 5755 5751 5747 5742 5739 5735 5730 5724 5719 5713 5706 5698 5689 5680 5670 5659 5647 5635 5620 5605 5590 5573 5557 5541 5524 5510 5496
5785 5786 5787 5787 5786 5785 5783 5781 5778 5775 5773 5771 5769 5765 5762 5758 5754 5749 5745 5740 5736 5730 5724 5720 5714 5707 5700 5693 5685 5675 5665 5654 5643 5631 5616 5600 5583 5567 5550 5534 5520 5504 5491 5479
5782 5782 5783 5782 5781 5780 5778 5777 5774 5771 5768 5764 5760 5757 5753 5748 5744 5740 5736 5730 5725 5720 5714 5708 5702 5696 5688 5679 5671 5661 5651 5639 5625 5610 5594 5579 5565 5549 5531 5515 5501 5486 5474 5462
5778 5777 5777 5777 5776 5774 5774 5771 5767 5764 5762 5758 5754 5750 5745 5741 5736 5732 5726 5722 5717 5711 5704 5698 5691 5683 5675 5666 5657 5647 5635 5620 5606 5591 5577 5562 5547 5531 5516 5498 5482 5469 5460 5451
5772 5772 5772 5771 5769 5768 5767 5764 5760 5757 5755 5750 5746 5742 5737 5732 5728 5723 5717 5713 5707 5700 5694 5687 5679 5671 5662 5653 5642 5629 5616 5603 5591 5577 5561 5545 5529 5513 5496 5480 5467 5459 5452 5445
5766 5765 5765 5764 5762 5761 5759 5756 5752 5749 5747 5740 5736 5732 5727 5723 5718 5713 5708 5702 5696 5689 5682 5674 5666 5658 5648 5637 5626 5614 5600 5587 5572 5558 5543 5528 5510 5494 5479 5468 5459 5452 5446 5439
5759 5758 5758 5756 5754 5752 5751 5748 5743 5741 5740 5733 5728 5724 5719 5713 5708 5703 5697 5690 5683 5676 5669 5661 5653 5644 5634 5623 5611 5598 5583 5568 5554 5541 5527 5511 5494 5478 5467 5458 5453 5447 5440 5435
5751 5749 5748 5747 5745 5744 5741 5738 5734 5733 5732 5723 5719 5713 5708 5703 5697 5691 5685 5677 5671 5664 5656 5648 5638 5628 5617 5606 5594 5580 5566 5551 5535 5522 5508 5492 5476 5465 5456 5451 5446 5440 5434 5429
5742 5740 5740 5738 5736 5735 5732 5728 5726 5722 5718 5713 5709 5704 5698 5692 5686 5680 5672 5665 5657 5650 5641 5633 5623 5612 5601 5590 5578 5566 5552 5537 5520 5505 5491 5476 5464 5455 5448 5443 5438 5433 5428 5422
5732 5731 5729 5730 5727 5724 5720 5718 5715 5710 5707 5703 5698 5692 5686 5680 5674 5667 5659 5651 5644 5636 5627 5618 5608 5597 5584 5572 5560 5549 5536 5521 5506 5490 5477 5464 5453 5446 5441 5436 5431 5426 5420 5415
5723 5719 5719 5719 5718 5714 5710 5707 5702 5697 5693 5688 5683 5678 5672 5667 5660 5652 5645 5638 5630 5622 5613 5603 5592 5581 5569 5556 5544 5531 5519 5506 5490 5476 5463 5452 5444 5438 5433 5429 5425 5420 5414 5408
5713 5711 5708 5706 5705 5700 5698 5694 5689 5683 5679 5675 5670 5665 5660 5654 5647 5640 5632 5624 5616 5606 5597 5586 5575 5564 5553 5542 5529 5516 5503 5490 5476 5462 5451 5442 5435 5430 5426 5422 5418 5413 5408 5402
5705 5700 5697 5695 5691 5688 5686 5681 5677 5672 5668 5664 5658 5653 5648 5640 5633 5626 5618 5610 5600 5591 5581 5571 5559 5549 5538 5526 5515 5503 5489 5476 5464 5452 5442 5433 5428 5423 5419 5415 5411 5406 5401 5396